This is the latest recevied weather packets stored in our database for station/object ON6OO-13. If no packets are shown the sender has not sent any weather packets the latest 10 day(s).
| Time | Temp. | Humidity | Pressure | Rain* | Wind** | Luminosity | Snow |
|---|---|---|---|---|---|---|---|
| 1777305158 | 18.89° C | 35% | 1012.8 hPa | 0 mm | - | - | - |
| 1777304246 | 18.89° C | 35% | 1012.8 hPa | 0 mm | - | - | - |
| 1777303334 | 18.89° C | 35% | 1012.8 hPa | 0 mm | - | - | - |
| 1777302422 | 18.89° C | 35% | 1013.2 hPa | 0 mm | - | - | - |
| 1777301511 | 18.89° C | 36% | 1013.5 hPa | 0 mm | - | - | - |
| 1777300599 | 18.89° C | 37% | 1013.2 hPa | 0 mm | - | - | - |
| 1777299686 | 18.89° C | 34% | 1013.5 hPa | 0 mm | - | - | - |
| 1777298774 | 18.89° C | 36% | 1013.8 hPa | 0 mm | - | - | - |
| 1777296950 | 18.33° C | 32% | 1013.8 hPa | 0 mm | - | - | - |
| 1777296038 | 18.33° C | 39% | 1014.5 hPa | 0 mm | - | - | - |
| 1777295126 | 17.78° C | 38% | 1014.2 hPa | 0 mm | - | - | - |
| 1777294214 | 17.78° C | 36% | 1014.5 hPa | 0 mm | - | - | - |
| 1777293302 | 17.22° C | 39% | 1014.5 hPa | 0 mm | - | - | - |
| 1777292390 | 17.22° C | 40% | 1014.9 hPa | 0 mm | - | - | - |
| 1777291478 | 16.67° C | 38% | 1014.9 hPa | 0 mm | - | - | - |
| 1777290566 | 16.67° C | 40% | 1015.2 hPa | 0 mm | - | - | - |
| 1777289654 | 16.67° C | 42% | 1014.9 hPa | 0 mm | - | - | - |
| 1777288742 | 16.11° C | 43% | 1015.2 hPa | 0 mm | - | - | - |
| 1777287830 | 16.11° C | 42% | 1015.5 hPa | 0 mm | - | - | - |
| 1777286918 | 15.56° C | 43% | 1015.5 hPa | 0 mm | - | - | - |
| 1777286006 | 15.56° C | 44% | 1015.9 hPa | 0 mm | - | - | - |
| 1777285094 | 15° C | 45% | 1015.9 hPa | 0 mm | - | - | - |
| 1777284182 | 15° C | 48% | 1016.2 hPa | 0 mm | - | - | - |
| 1777283270 | 14.44° C | 48% | 1016.5 hPa | 0 mm | - | - | - |
| 1777282358 | 13.89° C | 52% | 1016.2 hPa | 0 mm | - | - | - |
* Rain latest hour (hover to see other rain measurements)
** Current wind speed in m/s (hover to see current wind gust speed)